Time,TemperatureF,DewpointF,PressureIn,WindDirection,WindDirectionDegrees,WindSpeedMPH,WindSpeedGustMPH,Humidity,HourlyPrecipIn,Conditions,Clouds,dailyrainin,SoftwareType,DateUTC
2013-05-23 00:00:00,64.3,21.1,29.77,West,269,0.0,0.0,19,0.00,CLR,SCT,0.00,WeatherDisplay:10.37,2013-05-23 07:00:00,
2013-05-23 00:05:00,63.9,20.8,29.77,West,269,0.0,0.0,19,0.00,CLR,SCT,0.00,WeatherDisplay:10.37,2013-05-23 07:05:00,
2013-05-23 00:10:00,63.3,20.3,29.77,West,269,0.0,0.0,19,0.00,CLR,SCT,0.00,WeatherDisplay:10.37,2013-05-23 07:10:00,
2013-05-23 00:15:00,63.1,20.1,29.77,West,269,0.0,0.0,19,0.00,CLR,SCT,0.00,WeatherDisplay:10.37,2013-05-23 07:15:00,
2013-05-23 00:21:00,63.0,20.0,29.77,West,269,0.0,0.0,19,0.00,CLR,SCT,0.00,WeatherDisplay:10.37,2013-05-23 07:21:00,
2013-05-23 00:26:00,62.7,21.0,29.77,West,269,0.0,0.0,20,0.00,CLR,SCT,0.00,WeatherDisplay:10.37,2013-05-23 07:26:00,
2013-05-23 00:31:00,62.6,19.7,29.77,West,269,0.0,0.0,19,0.00,CLR,SCT,0.00,WeatherDisplay:10.37,2013-05-23 07:31:00,
2013-05-23 00:36:00,62.6,20.9,29.76,West,269,0.0,0.0,20,0.00,CLR,SCT,0.00,WeatherDisplay:10.37,2013-05-23 07:36:00,
2013-05-23 00:41:00,62.5,20.8,29.77,West,269,0.0,0.0,20,0.00,CLR,SCT,0.00,WeatherDisplay:10.37,2013-05-23 07:41:00,
2013-05-23 00:46:00,63.1,20.1,29.76,West,269,0.3,2.3,19,0.00,CLR,SCT,0.00,WeatherDisplay:10.37,2013-05-23 07:46:00,
2013-05-23 00:57:00,62.9,20.0,29.77,West,267,0.3,2.3,19,0.00,CLR,SCT,0.00,WeatherDisplay:10.37,2013-05-23 07:57:00,
2013-05-23 01:02:00,63.4,20.4,29.77,West,267,0.0,0.0,19,0.00,CLR,SCT,0.00,WeatherDisplay:10.37,2013-05-23 08:02:00,
2013-05-23 01:07:00,63.3,21.5,29.77,West,267,0.0,0.0,20,0.00,CLR,SCT,0.00,WeatherDisplay:10.37,2013-05-23 08:07:00,
2013-05-23 01:12:00,62.6,20.9,29.77,West,267,0.0,0.0,20,0.00,CLR,SCT,0.00,WeatherDisplay:10.37,2013-05-23 08:12:00,
2013-05-23 01:17:00,61.6,20.1,29.76,West,267,0.0,0.0,20,0.00,CLR,SCT,0.00,WeatherDisplay:10.37,2013-05-23 08:17:00,
2013-05-23 01:22:00,61.5,20.0,29.77,West,267,0.0,1.2,20,0.00,CLR,SCT,0.00,WeatherDisplay:10.37,2013-05-23 08:22:00,
2013-05-23 01:27:00,61.9,20.3,29.76,West,267,0.0,1.2,20,0.00,CLR,SCT,0.00,WeatherDisplay:10.37,2013-05-23 08:27:00,
2013-05-23 01:32:00,62.0,20.4,29.76,West,267,0.0,0.0,20,0.00,CLR,SCT,0.00,WeatherDisplay:10.37,2013-05-23 08:32:00,
2013-05-23 01:37:00,62.0,20.4,29.76,West,267,0.0,0.0,20,0.00,CLR,SCT,0.00,WeatherDisplay:10.37,2013-05-23 08:37:00,
2013-05-23 01:42:00,62.2,20.6,29.76,West,267,0.0,0.0,20,0.00,CLR,SCT,0.00,WeatherDisplay:10.37,2013-05-23 08:42:00,
2013-05-23 01:47:00,62.5,20.8,29.76,West,267,0.0,0.0,20,0.00,CLR,SCT,0.00,WeatherDisplay:10.37,2013-05-23 08:47:00,
2013-05-23 01:52:00,62.9,20.0,29.76,West,267,0.0,0.0,19,0.00,CLR,SCT,0.00,WeatherDisplay:10.37,2013-05-23 08:52:00,
2013-05-23 01:57:00,62.9,21.2,29.76,West,267,0.0,0.0,20,0.00,CLR,SCT,0.00,WeatherDisplay:10.37,2013-05-23 08:57:00,
2013-05-23 02:02:00,62.4,20.8,29.77,West,267,0.1,1.2,20,0.00,CLR,SCT,0.00,WeatherDisplay:10.37,2013-05-23 09:02:00,
2013-05-23 02:07:00,61.4,21.1,29.77,West,267,0.0,0.0,21,0.00,CLR,SCT,0.00,WeatherDisplay:10.37,2013-05-23 09:07:00,
2013-05-23 02:12:00,60.5,21.4,29.77,West,267,0.0,0.0,22,0.00,CLR,SCT,0.00,WeatherDisplay:10.37,2013-05-23 09:12:00,
2013-05-23 02:17:00,59.9,22.0,29.77,West,267,0.0,0.0,23,0.00,CLR,SCT,0.00,WeatherDisplay:10.37,2013-05-23 09:17:00,
2013-05-23 02:22:00,59.2,21.4,29.77,West,267,0.0,0.0,23,0.00,CLR,SCT,0.00,WeatherDisplay:10.37,2013-05-23 09:22:00,
2013-05-23 02:27:00,58.2,21.5,29.77,West,267,0.0,0.0,24,0.00,CLR,SCT,0.00,WeatherDisplay:10.37,2013-05-23 09:27:00,
2013-05-23 02:32:00,57.3,21.7,29.77,West,267,0.0,0.0,25,0.00,CLR,SCT,0.00,WeatherDisplay:10.37,2013-05-23 09:32:00,
2013-05-23 02:37:00,56.8,21.3,29.77,West,267,0.0,1.2,25,0.00,CLR,SCT,0.00,WeatherDisplay:10.37,2013-05-23 09:37:00,
2013-05-23 02:42:00,57.0,21.5,29.77,West,267,0.0,0.0,25,0.00,CLR,SCT,0.00,WeatherDisplay:10.37,2013-05-23 09:42:00,
2013-05-23 02:47:00,56.8,21.3,29.77,West,267,0.0,0.0,25,0.00,CLR,SCT,0.00,WeatherDisplay:10.37,2013-05-23 09:47:00,
2013-05-23 02:52:00,56.4,21.0,29.77,West,267,0.0,0.0,25,0.00,CLR,SCT,0.00,WeatherDisplay:10.37,2013-05-23 09:52:00,
2013-05-23 02:57:00,56.2,20.8,29.77,West,267,0.0,0.0,25,0.00,CLR,SCT,0.00,WeatherDisplay:10.37,2013-05-23 09:57:00,
2013-05-23 03:02:00,55.9,20.5,29.77,West,267,0.1,1.2,25,0.00,CLR,SCT,0.00,WeatherDisplay:10.37,2013-05-23 10:02:00,
2013-05-23 03:07:00,55.8,21.4,29.77,West,267,0.0,0.0,26,0.00,CLR,SCT,0.00,WeatherDisplay:10.37,2013-05-23 10:07:00,
2013-05-23 03:12:00,55.6,22.1,29.77,West,267,0.0,0.0,27,0.00,CLR,SCT,0.00,WeatherDisplay:10.37,2013-05-23 10:12:00,
2013-05-23 03:17:00,55.4,21.0,29.77,West,267,0.0,0.0,26,0.00,CLR,SCT,0.00,WeatherDisplay:10.37,2013-05-23 10:17:00,
2013-05-23 03:22:00,55.1,21.7,29.77,West,267,0.0,0.0,27,0.00,CLR,SCT,0.00,WeatherDisplay:10.37,2013-05-23 10:22:00,
2013-05-23 03:27:00,54.8,21.4,29.78,West,267,0.0,0.0,27,0.00,CLR,SCT,0.00,WeatherDisplay:10.37,2013-05-23 10:27:00,
2013-05-23 03:32:00,54.4,21.1,29.77,West,267,0.0,0.0,27,0.00,CLR,SCT,0.00,WeatherDisplay:10.37,2013-05-23 10:32:00,
2013-05-23 03:37:00,54.2,21.8,29.78,West,267,0.0,0.0,28,0.00,CLR,SCT,0.00,WeatherDisplay:10.37,2013-05-23 10:37:00,
2013-05-23 03:42:00,54.0,20.7,29.78,West,267,0.0,0.0,27,0.00,CLR,SCT,0.00,WeatherDisplay:10.37,2013-05-23 10:42:00,
2013-05-23 03:47:00,54.1,20.8,29.77,West,267,0.0,0.0,27,0.00,CLR,SCT,0.00,WeatherDisplay:10.37,2013-05-23 10:47:00,
2013-05-23 03:52:00,54.1,21.7,29.78,West,267,0.0,1.2,28,0.00,CLR,SCT,0.00,WeatherDisplay:10.37,2013-05-23 10:52:00,
2013-05-23 03:57:00,54.1,21.7,29.77,West,267,0.0,0.0,28,0.00,CLR,SCT,0.00,WeatherDisplay:10.37,2013-05-23 10:57:00,
2013-05-23 04:02:00,54.5,21.2,29.78,West,267,0.0,0.0,27,0.00,CLR,SCT,0.00,WeatherDisplay:10.37,2013-05-23 11:02:00,
2013-05-23 04:07:00,54.9,21.5,29.78,West,267,0.0,0.0,27,0.00,CLR,SCT,0.00,WeatherDisplay:10.37,2013-05-23 11:07:00,
2013-05-23 04:12:00,55.3,21.0,29.78,West,267,0.0,0.0,26,0.00,CLR,SCT,0.00,WeatherDisplay:10.37,2013-05-23 11:12:00,
2013-05-23 04:17:00,55.7,22.2,29.78,West,267,0.0,0.0,27,0.00,CLR,SCT,0.00,WeatherDisplay:10.37,2013-05-23 11:17:00,
2013-05-23 04:22:00,55.5,22.0,29.78,West,267,0.0,0.0,27,0.00,CLR,SCT,0.00,WeatherDisplay:10.37,2013-05-23 11:22:00,
2013-05-23 04:27:00,55.3,21.8,29.78,West,267,0.0,0.0,27,0.00,CLR,SCT,0.00,WeatherDisplay:10.37,2013-05-23 11:27:00,
2013-05-23 04:32:00,55.9,22.4,29.78,West,267,0.0,0.0,27,0.00,CLR,SCT,0.00,WeatherDisplay:10.37,2013-05-23 11:32:00,
2013-05-23 04:37:00,56.3,22.7,29.79,West,267,0.0,0.0,27,0.00,CLR,SCT,0.00,WeatherDisplay:10.37,2013-05-23 11:37:00,
2013-05-23 04:42:00,56.3,22.7,29.79,West,267,0.0,0.0,27,0.00,CLR,SCT,0.00,WeatherDisplay:10.37,2013-05-23 11:42:00,
2013-05-23 04:47:00,55.8,22.3,29.79,West,267,0.0,0.0,27,0.00,CLR,SCT,0.00,WeatherDisplay:10.37,2013-05-23 11:47:00,
2013-05-23 04:52:00,55.5,22.0,29.79,West,267,0.0,0.0,27,0.00,CLR,SCT,0.00,WeatherDisplay:10.37,2013-05-23 11:52:00,
2013-05-23 04:57:00,55.6,22.1,29.79,West,267,0.0,0.0,27,0.00,CLR,SCT,0.00,WeatherDisplay:10.37,2013-05-23 11:57:00,
2013-05-23 05:02:00,55.9,23.2,29.79,West,267,0.0,0.0,28,0.00,CLR,SCT,0.00,WeatherDisplay:10.37,2013-05-23 12:02:00,
2013-05-23 05:07:00,55.9,22.4,29.79,West,267,0.0,0.0,27,0.00,CLR,SCT,0.00,WeatherDisplay:10.37,2013-05-23 12:07:00,
2013-05-23 05:12:00,55.9,22.4,29.79,West,267,0.0,0.0,27,0.00,CLR,SCT,0.00,WeatherDisplay:10.37,2013-05-23 12:12:00,
2013-05-23 05:17:00,55.5,23.7,29.79,West,267,0.0,0.0,29,0.00,CLR,SCT,0.00,WeatherDisplay:10.37,2013-05-23 12:17:00,
2013-05-23 05:22:00,54.8,23.1,29.80,West,267,0.0,0.0,29,0.00,CLR,SCT,0.00,WeatherDisplay:10.37,2013-05-23 12:22:00,
2013-05-23 05:27:00,54.2,23.4,29.80,West,267,0.0,0.0,30,0.00,CLR,SCT,0.00,WeatherDisplay:10.37,2013-05-23 12:27:00,
2013-05-23 05:32:00,53.9,23.9,29.80,West,267,0.0,0.0,31,0.00,CLR,SCT,0.00,WeatherDisplay:10.37,2013-05-23 12:32:00,
2013-05-23 05:37:00,53.6,24.4,29.80,West,267,0.0,0.0,32,0.00,CLR,SCT,0.00,WeatherDisplay:10.37,2013-05-23 12:37:00,
2013-05-23 05:42:00,53.7,24.5,29.80,West,267,0.0,0.0,32,0.00,CLR,SCT,0.00,WeatherDisplay:10.37,2013-05-23 12:42:00,
2013-05-23 05:47:00,53.6,24.4,29.80,West,267,0.0,0.0,32,0.00,CLR,SCT,0.00,WeatherDisplay:10.37,2013-05-23 12:47:00,
2013-05-23 05:52:00,53.9,26.1,29.80,West,267,0.0,0.0,34,0.00,CLR,SCT,0.00,WeatherDisplay:10.37,2013-05-23 12:52:00,
2013-05-23 05:57:00,54.0,25.5,29.80,West,267,0.0,0.0,33,0.00,CLR,SCT,0.00,WeatherDisplay:10.37,2013-05-23 12:57:00,
2013-05-23 06:02:00,54.2,27.8,29.80,West,267,0.0,0.0,36,0.00,CLR,SCT,0.00,WeatherDisplay:10.37,2013-05-23 13:02:00,
2013-05-23 06:07:00,54.7,28.9,29.80,West,267,0.0,0.0,37,0.00,CLR,SCT,0.00,WeatherDisplay:10.37,2013-05-23 13:07:00,
2013-05-23 06:12:00,55.5,27.6,29.80,West,267,0.0,0.0,34,0.00,CLR,SCT,0.00,WeatherDisplay:10.37,2013-05-23 13:12:00,
2013-05-23 08:15:00,72.1,28.8,29.84,West,267,0.0,0.0,20,0.00,CLR,SCT,0.00,WeatherDisplay:10.37,2013-05-23 15:15:00,
2013-05-23 08:20:00,72.6,27.9,29.84,West,267,0.2,1.2,19,0.00,CLR,SCT,0.00,WeatherDisplay:10.37,2013-05-23 15:20:00,
2013-05-23 08:25:00,73.1,27.0,29.84,West,267,0.0,1.2,18,0.00,CLR,SCT,0.00,WeatherDisplay:10.37,2013-05-23 15:25:00,
2013-05-23 08:30:00,73.9,26.3,29.84,West,267,0.0,1.2,17,0.00,CLR,SCT,0.00,WeatherDisplay:10.37,2013-05-23 15:30:00,
2013-05-23 08:35:00,74.7,27.0,29.84,West,267,0.0,1.2,17,0.00,CLR,SCT,0.00,WeatherDisplay:10.37,2013-05-23 15:35:00,
2013-05-23 08:40:00,75.4,22.8,29.85,West,267,0.9,1.2,14,0.00,CLR,SCT,0.00,WeatherDisplay:10.37,2013-05-23 15:40:00,
2013-05-23 08:45:00,75.7,24.7,29.84,West,267,0.2,1.2,15,0.00,CLR,SCT,0.00,WeatherDisplay:10.37,2013-05-23 15:45:00,
2013-05-23 08:50:00,76.2,25.1,29.84,West,267,0.3,2.3,15,0.00,CLR,SCT,0.00,WeatherDisplay:10.37,2013-05-23 15:50:00,
2013-05-23 08:55:00,76.7,23.9,29.84,West,267,0.0,1.2,14,0.00,CLR,SCT,0.00,WeatherDisplay:10.37,2013-05-23 15:55:00,
2013-05-23 09:00:00,77.0,22.4,29.84,West,267,0.0,1.2,13,0.00,CLR,SCT,0.00,WeatherDisplay:10.37,2013-05-23 16:00:00,
2013-05-23 09:05:00,77.6,18.9,29.84,West,267,1.0,3.5,11,0.00,CLR,SCT,0.00,WeatherDisplay:10.37,2013-05-23 16:05:00,
2013-05-23 09:10:00,78.5,21.6,29.84,NE,46,0.9,1.2,12,0.00,CLR,SCT,0.00,WeatherDisplay:10.37,2013-05-23 16:10:00,
2013-05-23 09:15:00,79.6,13.1,29.84,South,169,3.5,9.0,8,0.00,CLR,SCT,0.00,WeatherDisplay:10.37,2013-05-23 16:15:00,
2013-05-23 09:20:00,80.3,18.7,29.84,ESE,119,3.9,11.0,10,0.00,CLR,SCT,0.00,WeatherDisplay:10.37,2013-05-23 16:20:00,
2013-05-23 09:25:00,80.9,3.6,29.84,South,176,2.8,5.8,5,0.00,CLR,SCT,0.00,WeatherDisplay:10.37,2013-05-23 16:25:00,
2013-05-23 09:30:00,80.8,10.9,29.84,SSW,205,5.5,11.5,7,0.00,CLR,SCT,0.00,WeatherDisplay:10.37,2013-05-23 16:30:00,
2013-05-23 09:35:00,81.0,3.6,29.84,SSW,211,5.6,9.2,5,0.00,CLR,SCT,0.00,WeatherDisplay:10.37,2013-05-23 16:35:00,
2013-05-23 09:40:00,81.6,4.1,29.84,SW,225,2.5,4.6,5,0.00,CLR,SCT,0.00,WeatherDisplay:10.37,2013-05-23 16:40:00,
2013-05-23 09:46:00,82.1,4.4,29.83,SSW,192,2.7,10.0,5,0.00,CLR,SCT,0.00,WeatherDisplay:10.37,2013-05-23 16:46:00,
2013-05-23 09:51:00,82.5,15.2,29.84,SSE,165,1.8,8.1,8,0.00,CLR,SCT,0.00,WeatherDisplay:10.37,2013-05-23 16:51:00,
2013-05-23 09:56:00,82.6,12.2,29.84,SSW,196,5.5,10.4,7,0.00,CLR,SCT,0.00,WeatherDisplay:10.37,2013-05-23 16:56:00,
2013-05-23 10:01:00,82.5,17.9,29.84,SSE,150,3.9,11.5,9,0.00,CLR,SCT,0.00,WeatherDisplay:10.37,2013-05-23 17:01:00,
2013-05-23 10:06:00,82.7,18.1,29.84,South,187,2.8,10.4,9,0.00,CLR,SCT,0.00,WeatherDisplay:10.37,2013-05-23 17:06:00,
2013-05-23 10:11:00,82.7,15.4,29.84,South,174,3.8,6.9,8,0.00,CLR,SCT,0.00,WeatherDisplay:10.37,2013-05-23 17:11:00,
2013-05-23 10:16:00,82.6,18.0,29.84,South,191,2.2,4.6,9,0.00,CLR,SCT,0.00,WeatherDisplay:10.37,2013-05-23 17:16:00,
2013-05-23 10:21:00,82.8,22.9,29.84,SE,134,1.4,5.8,11,0.00,CLR,SCT,0.00,WeatherDisplay:10.37,2013-05-23 17:21:00,
2013-05-23 10:26:00,83.1,15.7,29.84,South,187,5.4,8.1,8,0.00,CLR,SCT,0.00,WeatherDisplay:10.37,2013-05-23 17:26:00,
2013-05-23 10:31:00,83.4,15.9,29.84,SE,138,4.7,6.9,8,0.00,CLR,SCT,0.00,WeatherDisplay:10.37,2013-05-23 17:31:00,
2013-05-23 10:36:00,83.2,12.7,29.84,SE,137,5.4,11.5,7,0.00,CLR,SCT,0.00,WeatherDisplay:10.37,2013-05-23 17:36:00,
2013-05-23 10:41:00,83.9,19.0,29.84,SSW,200,2.7,6.9,9,0.00,CLR,SCT,0.00,WeatherDisplay:10.37,2013-05-23 17:41:00,
2013-05-23 10:46:00,84.1,19.1,29.84,SSE,167,2.4,8.1,9,0.00,CLR,SCT,0.00,WeatherDisplay:10.37,2013-05-23 17:46:00,
2013-05-23 10:51:00,84.1,16.4,29.83,South,171,4.1,4.6,8,0.00,CLR,SCT,0.00,WeatherDisplay:10.37,2013-05-23 17:51:00,
2013-05-23 10:56:00,85.0,14.0,29.84,South,191,2.2,5.8,7,0.00,CLR,SCT,0.00,WeatherDisplay:10.37,2013-05-23 17:56:00,
2013-05-23 11:01:00,84.6,16.8,29.84,SSW,198,6.3,11.5,8,0.00,CLR,SCT,0.00,WeatherDisplay:10.37,2013-05-23 18:01:00,
2013-05-23 11:06:00,84.5,10.2,29.84,SSW,193,7.3,17.0,6,0.00,CLR,SCT,0.00,WeatherDisplay:10.37,2013-05-23 18:06:00,
2013-05-23 11:11:00,84.4,10.1,29.84,South,183,4.5,10.4,6,0.00,CLR,SCT,0.00,WeatherDisplay:10.37,2013-05-23 18:11:00,
2013-05-23 11:16:00,84.7,6.2,29.84,South,179,8.1,15.0,5,0.00,CLR,SCT,0.00,WeatherDisplay:10.37,2013-05-23 18:16:00,
2013-05-23 11:21:00,84.7,10.3,29.84,SSE,155,5.6,11.5,6,0.00,CLR,SCT,0.00,WeatherDisplay:10.37,2013-05-23 18:21:00,
2013-05-23 11:26:00,84.7,13.8,29.84,SSW,202,3.7,8.1,7,0.00,CLR,SCT,0.00,WeatherDisplay:10.37,2013-05-23 18:26:00,
2013-05-23 11:31:00,85.0,14.0,29.84,SSW,192,4.5,6.9,7,0.00,CLR,SCT,0.00,WeatherDisplay:10.37,2013-05-23 18:31:00,
2013-05-23 11:36:00,85.0,10.5,29.84,South,179,5.5,10.4,6,0.00,CLR,SCT,0.00,WeatherDisplay:10.37,2013-05-23 18:36:00,
2013-05-23 11:41:00,85.1,1.7,29.84,SSE,166,5.2,11.5,4,0.00,CLR,SCT,0.00,WeatherDisplay:10.37,2013-05-23 18:41:00,
2013-05-23 11:46:00,85.2,6.6,29.84,SW,215,4.8,13.8,5,0.00,CLR,SCT,0.00,WeatherDisplay:10.37,2013-05-23 18:46:00,
2013-05-23 11:51:00,85.7,6.9,29.84,South,180,4.3,6.9,5,0.00,CLR,SCT,0.00,WeatherDisplay:10.37,2013-05-23 18:51:00,
2013-05-23 11:56:00,85.8,7.0,29.84,SSW,197,3.5,10.4,5,0.00,CLR,SCT,0.00,WeatherDisplay:10.37,2013-05-23 18:56:00,
2013-05-23 12:01:00,85.9,7.1,29.83,SSE,168,4.4,11.5,5,0.00,CLR,SCT,0.00,WeatherDisplay:10.37,2013-05-23 19:01:00,
2013-05-23 12:06:00,86.3,11.4,29.83,South,180,5.2,9.2,6,0.00,CLR,SCT,0.00,WeatherDisplay:10.37,2013-05-23 19:06:00,
2013-05-23 12:11:00,86.3,15.0,29.83,SE,141,1.4,3.5,7,0.00,CLR,SCT,0.00,WeatherDisplay:10.37,2013-05-23 19:11:00,
2013-05-23 12:16:00,86.6,15.2,29.83,South,190,3.2,10.4,7,0.00,CLR,SCT,0.00,WeatherDisplay:10.37,2013-05-23 19:16:00,
2013-05-23 12:21:00,87.0,15.5,29.83,South,171,5.5,11.5,7,0.00,CLR,SCT,0.00,WeatherDisplay:10.37,2013-05-23 19:21:00,
2013-05-23 12:26:00,87.4,18.9,29.83,ESE,112,0.4,3.5,8,0.00,CLR,SCT,0.00,WeatherDisplay:10.37,2013-05-23 19:26:00,
2013-05-23 12:31:00,87.3,15.7,29.83,South,180,3.3,8.1,7,0.00,CLR,SCT,0.00,WeatherDisplay:10.37,2013-05-23 19:31:00,
2013-05-23 12:36:00,87.4,15.8,29.82,SW,234,6.2,9.2,7,0.00,CLR,SCT,0.00,WeatherDisplay:10.37,2013-05-23 19:36:00,
2013-05-23 12:41:00,87.8,19.1,29.82,SSW,203,1.9,8.1,8,0.00,CLR,SCT,0.00,WeatherDisplay:10.37,2013-05-23 19:41:00,
2013-05-23 12:46:00,87.3,18.8,29.82,SSW,201,3.2,4.6,8,0.00,CLR,SCT,0.00,WeatherDisplay:10.37,2013-05-23 19:46:00,
2013-05-23 12:51:00,87.4,18.9,29.82,SSW,194,2.9,8.1,8,0.00,CLR,SCT,0.00,WeatherDisplay:10.37,2013-05-23 19:51:00,
2013-05-23 12:56:00,87.9,16.1,29.82,SSE,163,7.1,11.5,7,0.00,CLR,SCT,0.00,WeatherDisplay:10.37,2013-05-23 19:56:00,
2013-05-23 13:01:00,87.8,19.1,29.82,South,182,3.3,8.1,8,0.00,CLR,SCT,0.00,WeatherDisplay:10.37,2013-05-23 20:01:00,
2013-05-23 13:07:00,88.2,16.3,29.82,SE,140,6.1,6.1,7,0.00,CLR,SCT,0.00,WeatherDisplay:10.37,2013-05-23 20:07:00,
2013-05-23 13:12:00,88.0,16.2,29.82,SW,220,1.9,3.5,7,0.00,CLR,SCT,0.00,WeatherDisplay:10.37,2013-05-23 20:12:00,
2013-05-23 13:17:00,88.2,16.3,29.81,South,183,3.6,8.1,7,0.00,CLR,SCT,0.00,WeatherDisplay:10.37,2013-05-23 20:17:00,
2013-05-23 13:22:00,88.3,16.4,29.81,SSW,194,6.8,9.2,7,0.00,CLR,SCT,0.00,WeatherDisplay:10.37,2013-05-23 20:22:00,
2013-05-23 13:27:00,88.2,16.3,29.81,South,191,2.7,4.6,7,0.00,CLR,SCT,0.00,WeatherDisplay:10.37,2013-05-23 20:27:00,
2013-05-23 13:32:00,88.6,16.6,29.81,SSE,162,4.8,9.2,7,0.00,CLR,SCT,0.00,WeatherDisplay:10.37,2013-05-23 20:32:00,
2013-05-23 13:37:00,88.9,16.9,29.81,SSW,203,3.0,7.0,7,0.00,CLR,SCT,0.00,WeatherDisplay:10.37,2013-05-23 20:37:00,
2013-05-23 13:42:00,89.0,13.4,29.81,SSW,205,0.8,3.5,6,0.00,CLR,SCT,0.00,WeatherDisplay:10.37,2013-05-23 20:42:00,
2013-05-23 13:47:00,89.1,13.5,29.81,South,173,0.9,4.6,6,0.00,CLR,SCT,0.00,WeatherDisplay:10.37,2013-05-23 20:47:00,
2013-05-23 13:52:00,89.3,13.6,29.81,SSW,192,5.6,10.4,6,0.00,CLR,SCT,0.00,WeatherDisplay:10.37,2013-05-23 20:52:00,
2013-05-23 13:57:00,89.9,14.0,29.81,WSW,247,2.4,7.0,6,0.00,CLR,SCT,0.00,WeatherDisplay:10.37,2013-05-23 20:57:00,
2013-05-23 14:02:00,90.1,10.0,29.80,South,188,4.7,8.1,5,0.00,CLR,SCT,0.00,WeatherDisplay:10.37,2013-05-23 21:02:00,
2013-05-23 14:07:00,90.0,10.0,29.80,SW,217,7.3,11.5,5,0.00,CLR,SCT,0.00,WeatherDisplay:10.37,2013-05-23 21:07:00,
2013-05-23 14:12:00,89.3,9.5,29.80,South,180,3.0,5.8,5,0.00,CLR,SCT,0.00,WeatherDisplay:10.37,2013-05-23 21:12:00,
2013-05-23 14:17:00,89.0,13.4,29.80,South,175,3.6,5.8,6,0.00,CLR,SCT,0.00,WeatherDisplay:10.37,2013-05-23 21:17:00,
2013-05-23 14:22:00,88.9,13.3,29.80,WSW,240,4.4,8.1,6,0.00,CLR,SCT,0.00,WeatherDisplay:10.37,2013-05-23 21:22:00,
2013-05-23 14:27:00,88.9,9.2,29.80,SSE,166,6.3,10.4,5,0.00,CLR,SCT,0.00,WeatherDisplay:10.37,2013-05-23 21:27:00,
2013-05-23 14:32:00,88.8,9.1,29.80,South,172,3.2,8.1,5,0.00,CLR,SCT,0.00,WeatherDisplay:10.37,2013-05-23 21:32:00,
2013-05-23 14:37:00,89.4,4.6,29.79,South,171,6.6,10.4,4,0.00,CLR,SCT,0.00,WeatherDisplay:10.37,2013-05-23 21:37:00,
2013-05-23 14:42:00,89.7,4.8,29.80,SW,217,5.7,9.2,4,0.00,CLR,SCT,0.00,WeatherDisplay:10.37,2013-05-23 21:42:00,
2013-05-23 14:47:00,89.5,9.6,29.80,SW,220,1.0,3.5,5,0.00,CLR,SCT,0.00,WeatherDisplay:10.37,2013-05-23 21:47:00,
2013-05-23 14:52:00,89.7,9.8,29.80,South,190,4.3,9.2,5,0.00,CLR,SCT,0.00,WeatherDisplay:10.37,2013-05-23 21:52:00,
2013-05-23 14:57:00,89.8,4.9,29.79,West,279,3.9,8.1,4,0.00,CLR,SCT,0.00,WeatherDisplay:10.37,2013-05-23 21:57:00,
2013-05-23 15:02:00,89.5,9.6,29.79,SW,217,2.3,5.8,5,0.00,CLR,SCT,0.00,WeatherDisplay:10.37,2013-05-23 22:02:00,
2013-05-23 15:07:00,89.5,4.7,29.79,SSE,160,3.9,10.4,4,0.00,CLR,SCT,0.00,WeatherDisplay:10.37,2013-05-23 22:07:00,
2013-05-23 15:12:00,89.0,4.4,29.79,WSW,238,4.5,10.0,4,0.00,CLR,SCT,0.00,WeatherDisplay:10.37,2013-05-23 22:12:00,
2013-05-23 15:17:00,89.3,4.6,29.79,South,180,1.6,3.5,4,0.00,CLR,SCT,0.00,WeatherDisplay:10.37,2013-05-23 22:17:00,
2013-05-23 15:22:00,89.4,4.6,29.79,SW,228,2.4,5.0,4,0.00,CLR,SCT,0.00,WeatherDisplay:10.37,2013-05-23 22:22:00,
2013-05-23 15:27:00,89.2,4.5,29.79,WSW,244,4.5,9.2,4,0.00,CLR,SCT,0.00,WeatherDisplay:10.37,2013-05-23 22:27:00,
2013-05-23 15:32:00,89.3,9.5,29.79,West,268,3.7,10.4,5,0.00,CLR,SCT,0.00,WeatherDisplay:10.37,2013-05-23 22:32:00,
2013-05-23 15:37:00,89.5,4.7,29.79,South,189,1.2,3.5,4,0.00,CLR,SCT,0.00,WeatherDisplay:10.37,2013-05-23 22:37:00,
2013-05-23 15:42:00,89.5,9.6,29.78,South,177,3.0,8.1,5,0.00,CLR,SCT,0.00,WeatherDisplay:10.37,2013-05-23 22:42:00,
2013-05-23 15:47:00,89.8,4.9,29.78,SSW,196,4.6,7.0,4,0.00,CLR,SCT,0.00,WeatherDisplay:10.37,2013-05-23 22:47:00,
2013-05-23 15:52:00,89.8,4.9,29.78,South,187,4.2,9.2,4,0.00,CLR,SCT,0.00,WeatherDisplay:10.37,2013-05-23 22:52:00,
2013-05-23 15:57:00,89.4,4.6,29.78,South,182,4.1,8.1,4,0.00,CLR,SCT,0.00,WeatherDisplay:10.37,2013-05-23 22:57:00,
2013-05-23 16:02:00,89.3,9.5,29.78,South,169,3.1,11.5,5,0.00,CLR,SCT,0.00,WeatherDisplay:10.37,2013-05-23 23:02:00,
2013-05-23 16:07:00,89.5,9.6,29.78,South,171,4.8,9.2,5,0.00,CLR,SCT,0.00,WeatherDisplay:10.37,2013-05-23 23:07:00,
2013-05-23 16:12:00,89.7,4.8,29.78,South,183,0.8,3.5,4,0.00,CLR,SCT,0.00,WeatherDisplay:10.37,2013-05-23 23:12:00,
2013-05-23 16:17:00,89.9,9.9,29.78,SW,223,2.2,3.5,5,0.00,CLR,SCT,0.00,WeatherDisplay:10.37,2013-05-23 23:17:00,
2013-05-23 16:22:00,90.0,14.1,29.78,South,187,1.7,4.6,6,0.00,CLR,SCT,0.00,WeatherDisplay:10.37,2013-05-23 23:22:00,
2013-05-23 16:27:00,89.7,13.9,29.78,SW,222,3.0,5.8,6,0.00,CLR,SCT,0.00,WeatherDisplay:10.37,2013-05-23 23:27:00,
2013-05-23 16:32:00,89.4,13.7,29.78,SSW,192,4.0,8.1,6,0.00,CLR,SCT,0.00,WeatherDisplay:10.37,2013-05-23 23:32:00,
2013-05-23 16:37:00,89.0,16.9,29.78,SSW,202,2.9,4.6,7,0.00,CLR,SCT,0.00,WeatherDisplay:10.37,2013-05-23 23:37:00,
2013-05-23 16:42:00,88.5,16.6,29.77,SSW,202,4.2,9.2,7,0.00,CLR,SCT,0.00,WeatherDisplay:10.37,2013-05-23 23:42:00,
2013-05-23 16:47:00,88.4,16.5,29.77,SW,227,0.2,1.2,7,0.00,CLR,SCT,0.00,WeatherDisplay:10.37,2013-05-23 23:47:00,
2013-05-23 16:52:00,88.5,19.7,29.77,SSE,156,1.9,3.5,8,0.00,CLR,SCT,0.00,WeatherDisplay:10.37,2013-05-23 23:52:00,
2013-05-23 16:57:00,88.6,16.6,29.78,West,261,5.3,8.1,7,0.00,CLR,SCT,0.00,WeatherDisplay:10.37,2013-05-23 23:57:00,
2013-05-23 17:02:00,87.9,19.2,29.77,West,261,4.4,9.2,8,0.00,CLR,SCT,0.00,WeatherDisplay:10.37,2013-05-24 00:02:00,
2013-05-23 17:07:00,87.7,19.1,29.77,SW,234,3.8,6.9,8,0.00,CLR,SCT,0.00,WeatherDisplay:10.37,2013-05-24 00:07:00,
2013-05-23 17:12:00,87.4,18.9,29.77,SW,227,4.2,10.4,8,0.00,CLR,SCT,0.00,WeatherDisplay:10.37,2013-05-24 00:12:00,
2013-05-23 17:17:00,87.0,18.6,29.77,SW,215,2.9,3.5,8,0.00,CLR,SCT,0.00,WeatherDisplay:10.37,2013-05-24 00:17:00,
2013-05-23 17:22:00,86.9,18.5,29.77,SW,235,2.7,5.8,8,0.00,CLR,SCT,0.00,WeatherDisplay:10.37,2013-05-24 00:22:00,
2013-05-23 17:27:00,86.8,18.4,29.77,South,190,1.9,4.0,8,0.00,CLR,SCT,0.00,WeatherDisplay:10.37,2013-05-24 00:27:00,
2013-05-23 17:32:00,86.4,18.1,29.78,SW,229,4.7,8.1,8,0.00,CLR,SCT,0.00,WeatherDisplay:10.37,2013-05-24 00:32:00,
2013-05-23 17:37:00,86.0,17.8,29.78,WSW,252,4.2,5.8,8,0.00,CLR,SCT,0.00,WeatherDisplay:10.37,2013-05-24 00:37:00,
2013-05-23 17:42:00,85.9,17.7,29.78,SSW,211,3.8,8.1,8,0.00,CLR,SCT,0.00,WeatherDisplay:10.37,2013-05-24 00:42:00,
2013-05-23 17:47:00,85.8,17.7,29.78,WSW,252,4.4,6.9,8,0.00,CLR,SCT,0.00,WeatherDisplay:10.37,2013-05-24 00:47:00,
2013-05-23 17:52:00,85.7,17.6,29.78,SW,234,2.9,5.8,8,0.00,CLR,SCT,0.00,WeatherDisplay:10.37,2013-05-24 00:52:00,
2013-05-23 17:57:00,85.5,17.4,29.78,SW,217,3.5,5.8,8,0.00,CLR,SCT,0.00,WeatherDisplay:10.37,2013-05-24 00:57:00,
2013-05-23 18:02:00,85.1,17.1,29.78,WSW,242,1.2,5.8,8,0.00,CLR,SCT,0.00,WeatherDisplay:10.37,2013-05-24 01:02:00,
2013-05-23 18:07:00,84.9,17.0,29.78,SW,227,2.4,5.8,8,0.00,CLR,SCT,0.00,WeatherDisplay:10.37,2013-05-24 01:07:00,
2013-05-23 18:12:00,84.7,16.8,29.78,SW,219,4.2,8.1,8,0.00,CLR,SCT,0.00,WeatherDisplay:10.37,2013-05-24 01:12:00,
2013-05-23 18:17:00,84.3,16.6,29.78,SW,225,1.6,4.6,8,0.00,CLR,SCT,0.00,WeatherDisplay:10.37,2013-05-24 01:17:00,
2013-05-23 18:22:00,83.6,18.8,29.78,WSW,240,2.2,4.6,9,0.00,CLR,SCT,0.00,WeatherDisplay:10.37,2013-05-24 01:22:00,
2013-05-23 18:27:00,83.1,18.4,29.78,SW,225,2.2,5.8,9,0.00,CLR,SCT,0.00,WeatherDisplay:10.37,2013-05-24 01:27:00,
2013-05-23 18:32:00,82.5,17.9,29.78,WSW,245,3.2,5.8,9,0.00,CLR,SCT,0.00,WeatherDisplay:10.37,2013-05-24 01:32:00,
2013-05-23 18:37:00,82.1,17.6,29.79,WSW,244,3.2,6.9,9,0.00,CLR,SCT,0.00,WeatherDisplay:10.37,2013-05-24 01:37:00,
2013-05-23 18:42:00,81.7,17.3,29.79,SSW,204,2.0,4.6,9,0.00,CLR,SCT,0.00,WeatherDisplay:10.37,2013-05-24 01:42:00,
2013-05-23 18:47:00,81.4,17.1,29.79,SW,219,4.0,8.1,9,0.00,CLR,SCT,0.00,WeatherDisplay:10.37,2013-05-24 01:47:00,
2013-05-23 18:52:00,81.0,16.8,29.79,SW,234,3.8,9.2,9,0.00,CLR,SCT,0.00,WeatherDisplay:10.37,2013-05-24 01:52:00,
2013-05-23 18:57:00,80.6,19.0,29.79,SW,218,2.8,5.0,10,0.00,CLR,SCT,0.00,WeatherDisplay:10.37,2013-05-24 01:57:00,
2013-05-23 19:02:00,80.2,18.7,29.79,SW,229,1.8,4.6,10,0.00,CLR,SCT,0.00,WeatherDisplay:10.37,2013-05-24 02:02:00,
2013-05-23 19:07:00,79.8,18.3,29.79,SW,217,2.1,7.0,10,0.00,CLR,SCT,0.00,WeatherDisplay:10.37,2013-05-24 02:07:00,
2013-05-23 19:12:00,79.4,18.0,29.80,WSW,246,0.6,2.3,10,0.00,CLR,SCT,0.00,WeatherDisplay:10.37,2013-05-24 02:12:00,
2013-05-23 19:17:00,79.0,17.7,29.80,WSW,258,0.0,1.2,10,0.00,CLR,SCT,0.00,WeatherDisplay:10.37,2013-05-24 02:17:00,
2013-05-23 19:22:00,78.7,17.5,29.80,West,263,0.8,3.5,10,0.00,CLR,SCT,0.00,WeatherDisplay:10.37,2013-05-24 02:22:00,
2013-05-23 19:27:00,78.5,17.4,29.80,WSW,258,0.8,4.6,10,0.00,CLR,SCT,0.00,WeatherDisplay:10.37,2013-05-24 02:27:00,
2013-05-23 19:32:00,78.4,19.5,29.80,West,268,2.3,6.9,11,0.00,CLR,SCT,0.00,WeatherDisplay:10.37,2013-05-24 02:32:00,
2013-05-23 19:37:00,78.3,19.4,29.80,West,270,0.0,0.0,11,0.00,CLR,SCT,0.00,WeatherDisplay:10.37,2013-05-24 02:37:00,
2013-05-23 19:42:00,78.1,21.3,29.80,SW,229,1.1,2.3,12,0.00,CLR,SCT,0.00,WeatherDisplay:10.37,2013-05-24 02:42:00,
2013-05-23 19:47:00,77.9,23.1,29.80,West,259,3.4,8.1,13,0.00,CLR,SCT,0.00,WeatherDisplay:10.37,2013-05-24 02:47:00,
2013-05-23 19:52:00,77.8,23.0,29.80,WSW,247,0.6,4.6,13,0.00,CLR,SCT,0.00,WeatherDisplay:10.37,2013-05-24 02:52:00,
2013-05-23 19:57:00,77.8,23.0,29.80,WSW,254,4.4,10.4,13,0.00,CLR,SCT,0.00,WeatherDisplay:10.37,2013-05-24 02:57:00,
2013-05-23 20:02:00,77.7,22.9,29.80,West,271,2.8,5.8,13,0.00,CLR,SCT,0.00,WeatherDisplay:10.37,2013-05-24 03:02:00,
2013-05-23 20:07:00,77.6,22.8,29.80,SW,234,3.7,9.0,13,0.00,CLR,SCT,0.00,WeatherDisplay:10.37,2013-05-24 03:07:00,
2013-05-23 20:12:00,77.5,22.7,29.80,West,265,1.1,3.5,13,0.00,CLR,SCT,0.00,WeatherDisplay:10.37,2013-05-24 03:12:00,
2013-05-23 20:17:00,77.2,24.3,29.80,WSW,257,5.2,11.5,14,0.00,CLR,SCT,0.00,WeatherDisplay:10.37,2013-05-24 03:17:00,
2013-05-23 20:22:00,77.2,24.3,29.81,SW,227,6.9,11.0,14,0.00,CLR,SCT,0.00,WeatherDisplay:10.37,2013-05-24 03:22:00,
2013-05-23 20:27:00,77.1,22.4,29.80,SW,224,4.1,5.8,13,0.00,CLR,SCT,0.00,WeatherDisplay:10.37,2013-05-24 03:27:00,
2013-05-23 20:32:00,77.1,22.4,29.81,WSW,238,2.4,8.0,13,0.00,CLR,SCT,0.00,WeatherDisplay:10.37,2013-05-24 03:32:00,
2013-05-23 20:37:00,77.1,22.4,29.81,WSW,254,3.9,5.8,13,0.00,CLR,SCT,0.00,WeatherDisplay:10.37,2013-05-24 03:37:00,
2013-05-23 20:42:00,76.9,24.0,29.81,SW,229,2.4,4.6,14,0.00,CLR,SCT,0.00,WeatherDisplay:10.37,2013-05-24 03:42:00,
2013-05-23 20:47:00,76.8,24.0,29.81,SSE,158,1.1,4.6,14,0.00,CLR,SCT,0.00,WeatherDisplay:10.37,2013-05-24 03:47:00,
2013-05-23 20:52:00,76.7,23.9,29.81,WSW,237,4.6,12.7,14,0.00,CLR,SCT,0.00,WeatherDisplay:10.37,2013-05-24 03:52:00,
2013-05-23 20:57:00,76.7,25.5,29.82,SSW,194,0.3,6.9,15,0.00,CLR,SCT,0.00,WeatherDisplay:10.37,2013-05-24 03:57:00,
2013-05-23 21:01:00,76.6,25.5,29.82,SSE,149,0.7,4.6,15,0.00,CLR,SCT,0.00,WeatherDisplay:10.37,2013-05-24 04:01:00,
2013-05-23 21:02:00,76.6,25.5,29.82,SSE,149,0.0,4.6,15,0.00,CLR,SCT,0.00,WeatherDisplay:10.37,2013-05-24 04:02:00,
2013-05-23 21:05:00,76.4,25.3,29.82,SSE,158,0.2,3.5,15,0.00,CLR,SCT,0.00,WeatherDisplay:10.37,2013-05-24 04:05:00,
2013-05-23 21:06:00,76.3,25.2,29.82,WSW,248,1.7,3.5,15,0.00,CLR,SCT,0.00,WeatherDisplay:10.37,2013-05-24 04:06:00,
2013-05-23 21:11:00,76.2,25.1,29.82,West,259,0.2,3.5,15,0.00,CLR,SCT,0.00,WeatherDisplay:10.37,2013-05-24 04:11:00,
2013-05-23 21:16:00,76.0,25.0,29.82,SSW,208,0.3,0.0,15,0.00,CLR,SCT,0.00,WeatherDisplay:10.37,2013-05-24 04:16:00,
2013-05-23 21:21:00,75.6,26.2,29.82,South,184,0.1,1.2,16,0.00,CLR,SCT,0.00,WeatherDisplay:10.37,2013-05-24 04:21:00,
2013-05-23 21:26:00,75.5,26.1,29.83,SSE,157,0.1,1.0,16,0.00,CLR,SCT,0.00,WeatherDisplay:10.37,2013-05-24 04:26:00,
2013-05-23 21:31:00,75.3,24.4,29.83,WNW,302,0.0,1.2,15,0.00,CLR,SCT,0.00,WeatherDisplay:10.37,2013-05-24 04:31:00,
2013-05-23 21:36:00,75.0,25.7,29.83,NW,309,0.0,0.0,16,0.00,CLR,SCT,0.00,WeatherDisplay:10.37,2013-05-24 04:36:00,
2013-05-23 21:41:00,74.5,25.3,29.83,NW,309,0.0,0.0,16,0.00,CLR,SCT,0.00,WeatherDisplay:10.37,2013-05-24 04:41:00,
2013-05-23 21:46:00,74.1,26.5,29.84,SSW,192,0.8,3.0,17,0.00,CLR,SCT,0.00,WeatherDisplay:10.37,2013-05-24 04:46:00,
2013-05-23 21:51:00,74.4,28.1,29.83,SSW,207,0.1,1.2,18,0.00,CLR,SCT,0.00,WeatherDisplay:10.37,2013-05-24 04:51:00,
2013-05-23 21:56:00,74.4,26.7,29.84,SSE,155,0.0,0.0,17,0.00,CLR,SCT,0.00,WeatherDisplay:10.37,2013-05-24 04:56:00,
2013-05-23 22:01:00,74.3,26.6,29.84,SSE,155,0.0,0.0,17,0.00,CLR,SCT,0.00,WeatherDisplay:10.37,2013-05-24 05:01:00,
2013-05-23 22:06:00,73.6,26.1,29.84,SSE,155,0.0,0.0,17,0.00,CLR,SCT,0.00,WeatherDisplay:10.37,2013-05-24 05:06:00,
2013-05-23 22:11:00,72.6,27.9,29.84,SSE,155,0.0,0.0,19,0.00,CLR,SCT,0.00,WeatherDisplay:10.37,2013-05-24 05:11:00,
2013-05-23 22:16:00,71.9,28.6,29.84,SSE,155,0.0,1.2,20,0.00,CLR,SCT,0.00,WeatherDisplay:10.37,2013-05-24 05:16:00,
2013-05-23 22:21:00,71.2,28.0,29.84,SSE,155,0.0,0.0,20,0.00,CLR,SCT,0.00,WeatherDisplay:10.37,2013-05-24 05:21:00,
2013-05-23 22:26:00,70.6,28.7,29.85,SSE,155,0.0,0.0,21,0.00,CLR,SCT,0.00,WeatherDisplay:10.37,2013-05-24 05:26:00,
2013-05-23 22:31:00,70.0,31.5,29.85,SSE,155,0.1,1.2,24,0.00,CLR,SCT,0.00,WeatherDisplay:10.37,2013-05-24 05:31:00,
2013-05-23 22:36:00,70.8,32.2,29.85,SSE,149,0.4,3.5,24,0.00,CLR,SCT,0.00,WeatherDisplay:10.37,2013-05-24 05:36:00,
2013-05-23 22:41:00,71.4,31.6,29.85,SSE,149,0.0,1.2,23,0.00,CLR,SCT,0.00,WeatherDisplay:10.37,2013-05-24 05:41:00,
2013-05-23 22:46:00,70.8,30.0,29.85,SSE,149,0.0,0.0,22,0.00,CLR,SCT,0.00,WeatherDisplay:10.37,2013-05-24 05:46:00,
2013-05-23 22:51:00,70.1,31.6,29.85,SSE,149,0.0,0.0,24,0.00,CLR,SCT,0.00,WeatherDisplay:10.37,2013-05-24 05:51:00,
2013-05-23 22:56:00,69.4,31.0,29.85,SSE,149,0.1,0.0,24,0.00,CLR,SCT,0.00,WeatherDisplay:10.37,2013-05-24 05:56:00,
2013-05-23 23:01:00,69.1,30.8,29.84,SSE,149,0.2,1.0,24,0.00,CLR,SCT,0.00,WeatherDisplay:10.37,2013-05-24 06:01:00,
2013-05-23 23:06:00,68.9,30.6,29.85,SSE,149,0.2,1.2,24,0.00,CLR,SCT,0.00,WeatherDisplay:10.37,2013-05-24 06:06:00,
2013-05-23 23:11:00,69.5,32.1,29.85,East,94,0.3,1.2,25,0.00,CLR,SCT,0.00,WeatherDisplay:10.37,2013-05-24 06:11:00,
2013-05-23 23:16:00,70.7,32.1,29.84,North,357,3.2,8.1,24,0.00,CLR,SCT,0.00,WeatherDisplay:10.37,2013-05-24 06:16:00,
2013-05-23 23:21:00,71.8,32.0,29.85,SW,229,0.2,3.5,23,0.00,CLR,SCT,0.00,WeatherDisplay:10.37,2013-05-24 06:21:00,
2013-05-23 23:26:00,72.5,32.6,29.85,North,2,2.7,3.5,23,0.00,CLR,SCT,0.00,WeatherDisplay:10.37,2013-05-24 06:26:00,
2013-05-23 23:31:00,73.0,33.0,29.85,NNW,334,1.9,4.6,23,0.00,CLR,SCT,0.00,WeatherDisplay:10.37,2013-05-24 06:31:00,
2013-05-23 23:36:00,73.2,32.1,29.85,West,263,0.5,5.8,22,0.00,CLR,SCT,0.00,WeatherDisplay:10.37,2013-05-24 06:36:00,
2013-05-23 23:41:00,72.8,33.9,29.85,South,175,0.8,5.8,24,0.00,CLR,SCT,0.00,WeatherDisplay:10.37,2013-05-24 06:41:00,
2013-05-23 23:46:00,72.2,33.4,29.85,SSE,151,0.0,1.2,24,0.00,CLR,SCT,0.00,WeatherDisplay:10.37,2013-05-24 06:46:00,
2013-05-23 23:51:00,71.4,32.7,29.85,SE,137,0.2,1.0,24,0.00,CLR,SCT,0.00,WeatherDisplay:10.37,2013-05-24 06:51:00,
2013-05-23 23:56:00,70.5,33.0,29.85,ESE,109,1.3,3.5,25,0.00,CLR,SCT,0.00,WeatherDisplay:10.37,2013-05-24 06:56:00,